When you browse on this site, cookies collect data to enhance your experience and personalize the content and advertising you see.
Visit our Privacy Policy to learn more. By continuing to use the site, you agree to this use of cookies and data.
  • In Österreich
  • Länderverzeichnis
  • Für 7 Tage
  • Wassertemperatur
  • Wetterkarte
  • News
  • Widgets
  • user-avatar
    Anmelden

    Stündliche Wetter Portalegre

    Heute, 3 April, Freitag

    Zeit Temperatur Niederschläge Wind Luftdruck Luftfeuchtigkeit
    00:00 +8°C° 0 mm 1 m/S 722 mmHg 89%
    01:00 +7°C° 0 mm 1 m/S 721 mmHg 89%
    02:00 +7°C° 0 mm 1 m/S 721 mmHg 89%
    03:00 +6°C° 0 mm 0 m/S 721 mmHg 89%
    04:00 +6°C° 0 mm 1 m/S 721 mmHg 89%
    05:00 +6°C° 0 mm 1 m/S 721 mmHg 90%
    06:00 +6°C° 0 mm 1 m/S 721 mmHg 91%
    07:00 +8°C° 0 mm 1 m/S 721 mmHg 84%
    08:00 +10°C° 0 mm 1 m/S 722 mmHg 77%
    09:00 +12°C° 0 mm 2 m/S 722 mmHg 70%
    10:00 +14°C° 0 mm 2 m/S 722 mmHg 65%
    11:00 +16°C° 0 mm 2 m/S 722 mmHg 60%
    12:00 +18°C° 0 mm 2 m/S 722 mmHg 54%
    13:00 +18°C° 0 mm 2 m/S 722 mmHg 53%
    14:00 +18°C° 0 mm 2 m/S 721 mmHg 51%
    15:00 +19°C° 0 mm 2 m/S 721 mmHg 50%
    16:00 +18°C° 0 mm 2 m/S 721 mmHg 56%
    17:00 +18°C° 0 mm 1 m/S 720 mmHg 62%
    18:00 +16°C° 0 mm 1 m/S 720 mmHg 68%
    19:00 +14°C° 0 mm 1 m/S 720 mmHg 70%
    20:00 +13°C° 0 mm 1 m/S 720 mmHg 72%
    21:00 +11°C° 0 mm 1 m/S 720 mmHg 75%
    22:00 +11°C° 0 mm 1 m/S 720 mmHg 76%
    23:00 +10°C° 0 mm 1 m/S 720 mmHg 77%

    Morgen, 4 April, Samstag

    Zeit Temperatur Niederschläge Wind Luftdruck Luftfeuchtigkeit
    00:00 +10°C° 0 mm 1 m/S 720 mmHg 78%
    01:00 +8°C° 0 mm 2 m/S 720 mmHg 80%
    02:00 +8°C° 0 mm 2 m/S 720 mmHg 82%
    03:00 +8°C° 0 mm 2 m/S 719 mmHg 84%
    04:00 +7°C° 0 mm 2 m/S 719 mmHg 84%
    05:00 +7°C° 0 mm 2 m/S 719 mmHg 84%
    06:00 +7°C° 0 mm 2 m/S 719 mmHg 84%
    07:00 +9°C° 0 mm 3 m/S 719 mmHg 77%
    08:00 +10°C° 0 mm 4 m/S 719 mmHg 70%
    09:00 +12°C° 0 mm 4 m/S 720 mmHg 62%
    10:00 +13°C° 0 mm 4 m/S 720 mmHg 60%
    11:00 +14°C° 0 mm 4 m/S 720 mmHg 58%
    12:00 +15°C° 0 mm 4 m/S 720 mmHg 56%
    13:00 +15°C° 0 mm 5 m/S 720 mmHg 59%
    14:00 +15°C° 0 mm 5 m/S 720 mmHg 61%
    15:00 +15°C° 0 mm 5 m/S 719 mmHg 64%
    16:00 +14°C° 0.2 mm 4 m/S 719 mmHg 73%
    17:00 +12°C° 0.2 mm 3 m/S 719 mmHg 82%
    18:00 +12°C° 0.2 mm 2 m/S 719 mmHg 91%
    19:00 +12°C° 0.1 mm 2 m/S 720 mmHg 92%
    20:00 +11°C° 0.1 mm 3 m/S 720 mmHg 94%
    21:00 +11°C° 0.1 mm 3 m/S 721 mmHg 95%
    22:00 +10°C° 0 mm 3 m/S 721 mmHg 95%
    23:00 +10°C° 0 mm 3 m/S 721 mmHg 95%

    übermorgen, 5 April, Sonntag

    Zeit Temperatur Niederschläge Wind Luftdruck Luftfeuchtigkeit
    00:00 +9°C° 0 mm 2 m/S 721 mmHg 95%
    01:00 +9°C° 0 mm 3 m/S 720 mmHg 95%
    02:00 +9°C° 0 mm 3 m/S 720 mmHg 94%
    03:00 +10°C° 0 mm 3 m/S 720 mmHg 93%
    04:00 +9°C° 0 mm 3 m/S 720 mmHg 93%
    05:00 +9°C° 0 mm 3 m/S 720 mmHg 94%
    06:00 +8°C° 0 mm 4 m/S 720 mmHg 94%
    07:00 +10°C° 0.1 mm 4 m/S 721 mmHg 94%
    08:00 +11°C° 0.1 mm 4 m/S 721 mmHg 93%
    09:00 +12°C° 0.1 mm 4 m/S 721 mmHg 92%
    10:00 +13°C° 0.1 mm 5 m/S 721 mmHg 89%
    11:00 +14°C° 0.1 mm 5 m/S 722 mmHg 87%
    12:00 +15°C° 0.1 mm 5 m/S 722 mmHg 84%
    13:00 +15°C° 0.3 mm 6 m/S 721 mmHg 83%
    14:00 +16°C° 0.3 mm 6 m/S 721 mmHg 83%
    15:00 +16°C° 0.3 mm 6 m/S 721 mmHg 82%
    16:00 +16°C° 0.6 mm 6 m/S 721 mmHg 85%
    17:00 +15°C° 0.6 mm 5 m/S 721 mmHg 88%
    18:00 +15°C° 0.6 mm 4 m/S 721 mmHg 91%
    19:00 +14°C° 0.4 mm 4 m/S 721 mmHg 93%
    20:00 +13°C° 0.4 mm 4 m/S 722 mmHg 95%
    21:00 +12°C° 0.4 mm 4 m/S 722 mmHg 97%
    22:00 +12°C° 0 mm 3 m/S 723 mmHg 97%
    23:00 +12°C° 0 mm 3 m/S 723 mmHg 97%

    6 April, Montag

    Zeit Temperatur Niederschläge Wind Luftdruck Luftfeuchtigkeit
    00:00 +12°C° 0 mm 2 m/S 723 mmHg 97%
    01:00 +12°C° 0 mm 2 m/S 723 mmHg 97%
    02:00 +11°C° 0 mm 1 m/S 723 mmHg 98%
    03:00 +11°C° 0 mm 1 m/S 723 mmHg 98%
    04:00 +10°C° 0 mm 1 m/S 724 mmHg 98%
    05:00 +10°C° 0 mm 1 m/S 724 mmHg 98%
    06:00 +10°C° 0 mm 1 m/S 724 mmHg 98%
    07:00 +11°C° 0 mm 1 m/S 725 mmHg 92%
    08:00 +13°C° 0 mm 1 m/S 725 mmHg 87%
    09:00 +14°C° 0 mm 1 m/S 726 mmHg 82%
    10:00 +16°C° 0 mm 1 m/S 726 mmHg 73%
    11:00 +17°C° 0 mm 2 m/S 726 mmHg 64%
    12:00 +19°C° 0 mm 2 m/S 727 mmHg 55%
    13:00 +19°C° 0 mm 2 m/S 727 mmHg 55%
    14:00 +19°C° 0 mm 2 m/S 726 mmHg 54%
    15:00 +19°C° 0 mm 3 m/S 726 mmHg 54%
    16:00 +18°C° 0 mm 2 m/S 726 mmHg 60%
    17:00 +18°C° 0 mm 2 m/S 726 mmHg 65%
    18:00 +17°C° 0 mm 2 m/S 726 mmHg 71%
    19:00 +15°C° 0 mm 2 m/S 726 mmHg 77%
    20:00 +13°C° 0 mm 1 m/S 727 mmHg 83%
    21:00 +12°C° 0 mm 1 m/S 727 mmHg 89%
    22:00 +11°C° 0 mm 1 m/S 727 mmHg 89%
    23:00 +11°C° 0 mm 1 m/S 727 mmHg 90%

    7 April, Dienstag

    Zeit Temperatur Niederschläge Wind Luftdruck Luftfeuchtigkeit
    00:00 +11°C° 0 mm 1 m/S 727 mmHg 90%
    01:00 +10°C° 0 mm 1 m/S 727 mmHg 90%
    02:00 +9°C° 0 mm 0 m/S 727 mmHg 90%
    03:00 +9°C° 0 mm 0 m/S 727 mmHg 91%
    04:00 +9°C° 0 mm 1 m/S 727 mmHg 91%
    05:00 +9°C° 0 mm 1 m/S 727 mmHg 92%
    06:00 +9°C° 0 mm 1 m/S 727 mmHg 92%
    07:00 +11°C° 0 mm 1 m/S 728 mmHg 86%
    08:00 +13°C° 0 mm 1 m/S 728 mmHg 79%
    09:00 +15°C° 0 mm 1 m/S 728 mmHg 73%
    10:00 +18°C° 0 mm 1 m/S 728 mmHg 67%
    11:00 +20°C° 0 mm 1 m/S 729 mmHg 61%
    12:00 +21°C° 0 mm 1 m/S 729 mmHg 56%
    13:00 +22°C° 0 mm 1 m/S 728 mmHg 54%
    14:00 +22°C° 0 mm 1 m/S 728 mmHg 53%
    15:00 +22°C° 0 mm 1 m/S 728 mmHg 51%
    16:00 +22°C° 0 mm 1 m/S 727 mmHg 56%
    17:00 +21°C° 0 mm 1 m/S 727 mmHg 61%
    18:00 +18°C° 0 mm 0 m/S 727 mmHg 66%
    19:00 +16°C° 0 mm 0 m/S 727 mmHg 69%
    20:00 +16°C° 0 mm 1 m/S 727 mmHg 72%
    21:00 +14°C° 0 mm 1 m/S 728 mmHg 75%
    22:00 +14°C° 0 mm 1 m/S 728 mmHg 76%
    23:00 +13°C° 0 mm 1 m/S 728 mmHg 76%

    8 April, Mittwoch

    Zeit Temperatur Niederschläge Wind Luftdruck Luftfeuchtigkeit
    00:00 +13°C° 0 mm 1 m/S 728 mmHg 76%
    01:00 +13°C° 0 mm 1 m/S 728 mmHg 79%
    02:00 +12°C° 0 mm 1 m/S 728 mmHg 81%
    03:00 +12°C° 0 mm 1 m/S 727 mmHg 83%
    04:00 +12°C° 0 mm 1 m/S 727 mmHg 84%
    05:00 +12°C° 0 mm 1 m/S 728 mmHg 85%
    06:00 +12°C° 0 mm 1 m/S 728 mmHg 85%
    07:00 +13°C° 0 mm 1 m/S 728 mmHg 84%
    08:00 +13°C° 0 mm 1 m/S 728 mmHg 82%
    09:00 +14°C° 0 mm 2 m/S 728 mmHg 80%
    10:00 +15°C° 0 mm 2 m/S 728 mmHg 77%
    11:00 +16°C° 0 mm 2 m/S 728 mmHg 74%
    12:00 +17°C° 0 mm 2 m/S 729 mmHg 71%
    13:00 +18°C° 0.1 mm 2 m/S 728 mmHg 70%
    14:00 +19°C° 0.1 mm 2 m/S 728 mmHg 69%
    15:00 +20°C° 0.1 mm 1 m/S 728 mmHg 68%
    16:00 +19°C° 0.2 mm 1 m/S 728 mmHg 73%
    17:00 +18°C° 0.2 mm 1 m/S 727 mmHg 77%
    18:00 +18°C° 0.2 mm 1 m/S 727 mmHg 82%
    19:00 +16°C° 0 mm 1 m/S 727 mmHg 84%
    20:00 +15°C° 0 mm 1 m/S 728 mmHg 85%
    21:00 +13°C° 0 mm 0 m/S 728 mmHg 87%
    22:00 +12°C° 0 mm 0 m/S 728 mmHg 88%
    23:00 +13°C° 0 mm 1 m/S 728 mmHg 89%
    Mehr zeigen